Weather Roundup
Issued by NWS Chicago, IL

Home | Current Version | Previous Version | Text Only | Print | Product List | Glossary On
Versions: 1 2 3 4 5 6 7 8 9 10 11 12 13 14 15 16 17 18 19 20 21 22 23 24 25 26 27 28 29 30 31 32 33 34 35 36 37 38 39 40 41 42 43 44 45 46 47 48 49 50
912
NZUS59 KLOT 241312
HRRLOT

CHICAGO AREA WEATHER ROUNDUP
NATIONAL WEATHER SERVICE CHICAGO/ROMEOVILLE IL
700 AM CST TUE JAN 24 2017

NOTE: "FAIR" INDICATES FEW OR NO CLOUDS BELOW 12,000 FEET WITH NO
SIGNIFICANT WEATHER AND/OR OBSTRUCTIONS TO VISIBILITY.

* THESE STATIONS ARE NOT UNDER NWS QUALITY CONTROL. THEY ALSO MAY NOT
  REPORT WEATHER SUCH AS PRECIPITATION OR FOG.

ILZ005-006-012>014-019>023-241400-
NORTHEAST ILLINOIS

CITY           SKY/WX    TMP DP  RH WIND       PRES   REMARKS
OHARE          CLOUDY    35  32  88 NW8       29.86R WCI  29
MIDWAY         CLOUDY    37  31  78 W7        29.87R
AURORA         CLOUDY    36  32  85 NW6       29.88R
LANSING*       CLOUDY    37  34  90 NW5       29.88R
JOLIET*        CLOUDY    38  33  81 NW5       29.89R
WAUKEGAN       CLOUDY    36  32  85 NW7       29.85R
DUPAGE AIRPORT CLOUDY    36  30  79 NW5       29.87R
WHEELING       CLOUDY    36  32  85 W9        29.88R
KANKAKEE*      CLOUDY    37  33  82 NW5       29.90R
MORRIS*        CLOUDY    36  32  85 CALM      29.88R
LEWIS AIRPORT* CLOUDY    36  34  92 NW5       29.88R
NORTHERLY ISL    N/A     37  32  82 W9          N/A
$$

WIZ051-052-058>065-066-070>072-241400-
SOUTHEAST WISCONSIN

CITY           SKY/WX    TMP DP  RH WIND       PRES   REMARKS
MILWAUKEE      CLOUDY    37  33  85 NW9       29.85R
KENOSHA*       CLOUDY    36  32  85 W8        29.85S
RACINE*        CLOUDY    36  32  85 NW9       29.87R
WAUKESHA       CLOUDY    32  32 100 W6        29.85S FOG     WCI  26
WEST BEND      CLOUDY    34  34 100 W5        29.83S FOG     WCI  30
$$

INZ001>003-010>013-019-020-241400-
NORTHWEST INDIANA

CITY           SKY/WX    TMP DP  RH WIND       PRES   REMARKS
GARY*          CLOUDY    39  34  81 NW3       29.88R
MICHIGAN CITY* NOT AVBL
RENSSELAER*    NOT AVBL
VALPARAISO     CLOUDY    38  35  89 VRB5      29.86R
$$

LMZ740>746-241400-
SOUTHERN LAKE MICHIGAN

STATION/POSITION TIME  SKY/WX   TEMP WIND        PRES    VSBY
                                AIR  DIR/SP/G
                 (UTC)          (F)  (DEG/KT/KT) (MB)    (MI)
HARRISON CRIB    1240            37  300/  8/ 10   N/A
BURNHAM HARBOR   1300            37  260/  4/ 11   N/A
CALUMET HARBOR   1248            37  300/  5/  8 1010.9R
BURNS HARBOR     1240            35  300/  8/  9 1011.9R
MICHIGAN CITY    NOT AVBL
$$

ABBREVIATIONS USED IN REMARKS
   TC - TEMPERATURE IN CELSIUS
  WCI - WIND CHILL INDEX
   HX - HEAT INDEX
  VSB - VISIBILITY
$$




USA.gov is the U.S. government's official web portal to all federal, state and local government web resources and services.